Location: Prairie State College
(41.5244°N, 87.6382°W)
Time: 10:43:45
(UTC-05:00)

MSX - Visible Passes

Search period start: 26 May 2015 00:00
Search period end: 05 June 2015 00:00
Orbit: 894 x 907 km, 98.7° (Epoch: 30 April)

Date Brightness Start Highest point End Pass type
(mag) Time Alt. Az. Time Alt. Az. Time Alt. Az.
26 May 5.2 20:46:06 10° SSW 20:51:31 41° W 20:56:56 10° NNW visible
27 May 5.3 20:48:59 10° SSW 20:54:20 38° W 20:59:42 10° NNW visible
28 May 5.4 20:51:51 10° SSW 20:57:10 36° W 21:02:27 10° NNW visible
29 May 5.5 20:54:45 10° SSW 20:59:59 34° W 21:05:12 10° NNW visible
30 May 5.6 20:57:40 10° SSW 21:02:49 32° W 21:07:56 10° NNW visible
31 May 5.6 21:00:34 10° SSW 21:05:39 31° W 21:10:41 10° NW visible
01 Jun 5.7 21:03:29 10° SSW 21:08:29 29° W 21:13:24 10° NW visible
02 Jun 5.8 21:06:25 10° SSW 21:11:19 27° W 21:16:07 10° NW visible
03 Jun 5.9 21:09:21 10° SSW 21:14:09 26° W 21:18:51 10° NW visible
04 Jun 6.0 21:12:18 10° SSW 21:16:59 24° W 21:21:33 10° NW visible
